Home > Weather > MD of Lunenburg > Past weeks

Flag for Canada Past Weather in MD of Lunenburg, Nova Scotia, Canada — Yesterday and Last 2 Weeks

Now
59 °F

Cool.


Feels Like: 60 °F
Forecast: 63 / 81 °F
Wind: 3 mph from Northeast

Location: McNabs Island - AUT

Current Time: Jul 24, 2016 at 1:57:47 AM

Latest Report: Jul 24, 2016 at 1:00 AM


Visibility: N/A

Pressure: 29.72 "Hg

Humidity: 90%

Dew Point: 56 °F

Location of MD of LunenburgLocation

Past Weather in MD of Lunenburg — Graph

°F

MD of Lunenburg Temperature Yesterday

Maximum temperature yesterday: 74 °F (at 4:00 PM)
Minimum temperature yesterday: 62 °F (at 3:00 AM)
Average temperature yesterday: 65 °F

High & Low Weather Summary for the Past Weeks

 TemperatureHumidityPressure
High84 °F (Jul 19, 4:00 PM)100% (Jul 11, 2:00 AM)30.17 "Hg (Jul 11, 2:00 AM)
Low53 °F (Jul 11, 2:00 AM)37% (Jul 20, 4:00 PM)29.66 "Hg (Jul 23, 5:00 PM)
Average64 °F82%29.92 "Hg
* Reported Jul 9 12:00 AM — Jul 24 12:00 AM, MD of Lunenburg, Weather by CustomWeather, © 2016

Note: Actual official high and low records may vary slightly from our data, if they occured in-between our weather recording intervals... More about our weather records

Advertising

MD of Lunenburg Weather History for the Previous 24 Hours

Scroll right to see more
 ConditionsComfort  
Time TempWeatherWind HumidityBarometerVisibility
12:00 AM
Sun, Jul 24
60 °FCool.3 mph95%29.73 "HgN/A
11:00 PM
Sat, Jul 23
62 °FCool.1 mph94%29.71 "HgN/A
10:00 PM64 °FMild.5 mph90%29.71 "HgN/A
9:00 PM64 °FMild.2 mph88%29.71 "HgN/A
8:00 PM63 °FMild.3 mph94%29.70 "HgN/A
7:00 PM64 °FMild.5 mph87%29.69 "HgN/A
6:00 PM68 °FMild.12 mph77%29.68 "HgN/A
5:00 PM69 °FMild.13 mph82%29.66 "HgN/A
4:00 PM74 °FMild.3 mph75%29.67 "HgN/A
3:00 PM65 °FMild.14 mph91%29.69 "HgN/A
2:00 PM66 °FMild.6 mph90%29.70 "HgN/A
1:00 PM66 °FMild.24 mph88%29.71 "HgN/A
12:00 PM66 °FMild.10 mph88%29.72 "HgN/A
11:00 AM65 °FMild.14 mph88%29.70 "HgN/A
10:00 AM71 °FMild.7 mph80%29.71 "HgN/A
9:00 AM66 °FMild.12 mph87%29.72 "HgN/A
8:00 AM63 °FMild.No wind96%29.71 "HgN/A
7:00 AM63 °FMild.3 mph96%29.68 "HgN/A
6:00 AM63 °FMild.2 mph96%29.69 "HgN/A
5:00 AM63 °FMild.5 mph90%29.68 "HgN/A
4:00 AM62 °FMild.7 mph96%29.69 "HgN/A
3:00 AM62 °FCool.8 mph97%29.71 "HgN/A
2:00 AM63 °FMild.18 mph95%29.72 "HgN/A
1:00 AM64 °FMild.25 mph94%29.70 "HgN/A
Weather by CustomWeather, © 2016

See weather overviewHow to use our weather pages